• In Belarus
  • List of Countries
  • For 7 days
  • Water Temperature
  • Weather Map
  • Weather Widgets
  • user-avatar
    Login

    Hourly Weather Sliven

    Today, 19 September, Thursday

    Time Temperature Precipitation Wind Pressure Humidity
    00:00 +18°C° 0 mm 3 mps 735 mmHg 39%
    01:00 +18°C° 0 mm 2 mps 735 mmHg 42%
    02:00 +17°C° 0 mm 2 mps 735 mmHg 45%
    03:00 +16°C° 0 mm 2 mps 735 mmHg 47%
    04:00 +16°C° 0 mm 2 mps 735 mmHg 48%
    05:00 +15°C° 0 mm 1 mps 735 mmHg 50%
    06:00 +16°C° 0 mm 1 mps 735 mmHg 53%
    07:00 +17°C° 0 mm 2 mps 735 mmHg 55%
    08:00 +18°C° 0 mm 2 mps 736 mmHg 58%
    09:00 +18°C° 0 mm 2 mps 736 mmHg 59%
    10:00 +19°C° 0 mm 1 mps 736 mmHg 60%
    11:00 +20°C° 0 mm 1 mps 736 mmHg 62%
    12:00 +19°C° 0 mm 2 mps 736 mmHg 60%
    13:00 +20°C° 0 mm 2 mps 735 mmHg 58%
    14:00 +21°C° 0 mm 2 mps 735 mmHg 56%
    15:00 +20°C° 0.1 mm 2 mps 735 mmHg 60%
    16:00 +19°C° 0.1 mm 2 mps 735 mmHg 63%
    17:00 +17°C° 0.1 mm 2 mps 734 mmHg 67%
    18:00 +17°C° 0.1 mm 2 mps 734 mmHg 69%
    19:00 +16°C° 0.1 mm 2 mps 735 mmHg 72%
    20:00 +15°C° 0.1 mm 2 mps 735 mmHg 75%
    21:00 +14°C° 0.3 mm 2 mps 735 mmHg 76%
    22:00 +14°C° 0.3 mm 2 mps 735 mmHg 78%
    23:00 +12°C° 0.3 mm 3 mps 735 mmHg 80%

    Tomorrow, 20 September, Friday

    Time Temperature Precipitation Wind Pressure Humidity
    00:00 +12°C° 1.4 mm 3 mps 735 mmHg 83%
    01:00 +11°C° 1.4 mm 3 mps 735 mmHg 86%
    02:00 +12°C° 1.4 mm 2 mps 734 mmHg 89%
    03:00 +12°C° 0.6 mm 2 mps 734 mmHg 89%
    04:00 +12°C° 0.6 mm 2 mps 734 mmHg 88%
    05:00 +12°C° 0.6 mm 2 mps 734 mmHg 87%
    06:00 +12°C° 0.1 mm 2 mps 735 mmHg 83%
    07:00 +12°C° 0.1 mm 2 mps 735 mmHg 79%
    08:00 +12°C° 0.1 mm 2 mps 735 mmHg 75%
    09:00 +13°C° 0 mm 3 mps 735 mmHg 65%
    10:00 +14°C° 0 mm 4 mps 736 mmHg 54%
    11:00 +15°C° 0 mm 4 mps 736 mmHg 44%
    12:00 +16°C° 0 mm 5 mps 736 mmHg 41%
    13:00 +17°C° 0 mm 5 mps 736 mmHg 38%
    14:00 +19°C° 0 mm 6 mps 736 mmHg 35%
    15:00 +17°C° 0 mm 5 mps 736 mmHg 37%
    16:00 +17°C° 0 mm 5 mps 736 mmHg 38%
    17:00 +17°C° 0 mm 4 mps 736 mmHg 40%
    18:00 +15°C° 0 mm 4 mps 736 mmHg 45%
    19:00 +13°C° 0 mm 3 mps 737 mmHg 49%
    20:00 +12°C° 0 mm 2 mps 737 mmHg 54%
    21:00 +12°C° 0 mm 2 mps 737 mmHg 54%
    22:00 +12°C° 0 mm 2 mps 738 mmHg 55%
    23:00 +11°C° 0 mm 1 mps 738 mmHg 55%

    Day after tomorrow, 21 September, Saturday

    Time Temperature Precipitation Wind Pressure Humidity
    00:00 +11°C° 0 mm 1 mps 738 mmHg 56%
    01:00 +11°C° 0 mm 1 mps 738 mmHg 56%
    02:00 +10°C° 0 mm 1 mps 738 mmHg 56%
    03:00 +10°C° 0 mm 1 mps 738 mmHg 56%
    04:00 +9°C° 0 mm 1 mps 739 mmHg 57%
    05:00 +9°C° 0 mm 1 mps 739 mmHg 58%
    06:00 +11°C° 0 mm 1 mps 739 mmHg 53%
    07:00 +12°C° 0 mm 1 mps 739 mmHg 48%
    08:00 +14°C° 0 mm 1 mps 740 mmHg 44%
    09:00 +15°C° 0 mm 1 mps 740 mmHg 39%
    10:00 +18°C° 0 mm 1 mps 740 mmHg 34%
    11:00 +20°C° 0 mm 1 mps 740 mmHg 30%
    12:00 +21°C° 0 mm 1 mps 740 mmHg 28%
    13:00 +22°C° 0 mm 1 mps 740 mmHg 26%
    14:00 +22°C° 0 mm 1 mps 739 mmHg 25%
    15:00 +22°C° 0 mm 1 mps 739 mmHg 26%
    16:00 +21°C° 0 mm 1 mps 738 mmHg 27%
    17:00 +21°C° 0 mm 1 mps 738 mmHg 28%
    18:00 +19°C° 0 mm 1 mps 738 mmHg 36%
    19:00 +15°C° 0 mm 2 mps 738 mmHg 44%
    20:00 +13°C° 0 mm 2 mps 738 mmHg 51%
    21:00 +12°C° 0 mm 2 mps 738 mmHg 55%
    22:00 +12°C° 0 mm 1 mps 738 mmHg 58%
    23:00 +11°C° 0 mm 1 mps 738 mmHg 61%

    22 September, Sunday

    Time Temperature Precipitation Wind Pressure Humidity
    00:00 +11°C° 0 mm 1 mps 738 mmHg 62%
    01:00 +10°C° 0 mm 1 mps 738 mmHg 63%
    02:00 +10°C° 0 mm 1 mps 738 mmHg 64%
    03:00 +10°C° 0 mm 1 mps 738 mmHg 65%
    04:00 +9°C° 0 mm 0 mps 737 mmHg 66%
    05:00 +9°C° 0 mm 0 mps 737 mmHg 68%
    06:00 +10°C° 0 mm 0 mps 737 mmHg 62%
    07:00 +13°C° 0 mm 1 mps 737 mmHg 56%
    08:00 +14°C° 0 mm 1 mps 737 mmHg 50%
    09:00 +16°C° 0 mm 1 mps 737 mmHg 44%
    10:00 +19°C° 0 mm 1 mps 737 mmHg 38%
    11:00 +21°C° 0 mm 1 mps 738 mmHg 31%
    12:00 +22°C° 0 mm 1 mps 737 mmHg 29%
    13:00 +23°C° 0 mm 1 mps 737 mmHg 27%
    14:00 +25°C° 0 mm 1 mps 736 mmHg 24%
    15:00 +24°C° 0 mm 1 mps 736 mmHg 26%
    16:00 +23°C° 0 mm 1 mps 735 mmHg 27%
    17:00 +23°C° 0 mm 1 mps 735 mmHg 29%
    18:00 +20°C° 0 mm 1 mps 735 mmHg 38%
    19:00 +17°C° 0 mm 2 mps 735 mmHg 46%
    20:00 +14°C° 0 mm 2 mps 735 mmHg 55%
    21:00 +14°C° 0 mm 2 mps 735 mmHg 61%
    22:00 +13°C° 0 mm 1 mps 735 mmHg 67%
    23:00 +12°C° 0 mm 1 mps 736 mmHg 73%

    23 September, Monday

    Time Temperature Precipitation Wind Pressure Humidity
    00:00 +12°C° 0 mm 1 mps 736 mmHg 74%
    01:00 +12°C° 0 mm 1 mps 736 mmHg 76%
    02:00 +12°C° 0 mm 1 mps 736 mmHg 77%
    03:00 +11°C° 0 mm 1 mps 735 mmHg 77%
    04:00 +10°C° 0 mm 0 mps 735 mmHg 77%
    05:00 +10°C° 0 mm 0 mps 735 mmHg 78%
    06:00 +13°C° 0 mm 1 mps 735 mmHg 71%
    07:00 +14°C° 0 mm 1 mps 735 mmHg 65%
    08:00 +16°C° 0 mm 1 mps 735 mmHg 58%
    09:00 +19°C° 0 mm 1 mps 735 mmHg 51%
    10:00 +20°C° 0 mm 2 mps 735 mmHg 43%
    11:00 +23°C° 0 mm 2 mps 736 mmHg 36%
    12:00 +24°C° 0 mm 2 mps 735 mmHg 33%
    13:00 +25°C° 0 mm 2 mps 734 mmHg 30%
    14:00 +26°C° 0 mm 2 mps 734 mmHg 27%
    15:00 +25°C° 0 mm 2 mps 733 mmHg 29%
    16:00 +25°C° 0 mm 2 mps 733 mmHg 30%
    17:00 +24°C° 0 mm 3 mps 732 mmHg 32%
    18:00 +21°C° 0 mm 2 mps 732 mmHg 45%
    19:00 +18°C° 0 mm 2 mps 732 mmHg 58%
    20:00 +16°C° 0 mm 2 mps 732 mmHg 71%
    21:00 +16°C° 0 mm 2 mps 732 mmHg 73%
    22:00 +15°C° 0 mm 1 mps 732 mmHg 75%
    23:00 +15°C° 0 mm 1 mps 732 mmHg 77%

    24 September, Tuesday

    Time Temperature Precipitation Wind Pressure Humidity
    00:00 +15°C° 0 mm 1 mps 731 mmHg 75%
    01:00 +15°C° 0 mm 1 mps 731 mmHg 74%
    02:00 +15°C° 0 mm 1 mps 731 mmHg 72%
    03:00 +15°C° 0 mm 1 mps 731 mmHg 69%
    04:00 +16°C° 0 mm 1 mps 730 mmHg 66%
    05:00 +16°C° 0 mm 1 mps 730 mmHg 63%
    06:00 +17°C° 0 mm 2 mps 730 mmHg 60%
    07:00 +18°C° 0 mm 2 mps 730 mmHg 58%
    08:00 +19°C° 0 mm 3 mps 730 mmHg 56%
    09:00 +21°C° 0 mm 3 mps 731 mmHg 52%
    10:00 +23°C° 0 mm 4 mps 731 mmHg 48%
    11:00 +26°C° 0 mm 4 mps 731 mmHg 44%
    12:00 +27°C° 0 mm 5 mps 731 mmHg 41%
    13:00 +27°C° 0 mm 5 mps 730 mmHg 38%
    14:00 +28°C° 0 mm 5 mps 730 mmHg 35%
    15:00 +27°C° 0 mm 5 mps 730 mmHg 34%
    16:00 +26°C° 0 mm 5 mps 730 mmHg 33%
    17:00 +25°C° 0 mm 5 mps 729 mmHg 31%
    18:00 +23°C° 0 mm 4 mps 730 mmHg 33%
    19:00 +22°C° 0 mm 3 mps 730 mmHg 34%
    20:00 +20°C° 0 mm 3 mps 730 mmHg 36%
    21:00 +19°C° 0 mm 3 mps 731 mmHg 38%
    22:00 +19°C° 0 mm 3 mps 731 mmHg 40%
    23:00 +18°C° 0 mm 3 mps 731 mmHg 42%
    Show more